Date String (YYYY-MM-DD hh:mm:ss) UTC,Instrument flags,absolute air pressure of the measurement (hPa),sample flow rate (lpm),inlet stack bypass flow (lpm),air temperature of the measurement (°C),ambient temperature measured by the external sensor (°C),aerosol sample conditioner tube jacket temperature (°C),OPC LED temperature (°C),internal box temperature (°C),relative humidity of the measurement (%),span deviation,mass concentration of particles derived from Lorenz-Mie calculation of OPC scattering (μg/m³),mass concentration of particles derived from Lorenz-Mie calculation of OPC scattering (μg/m³),mass concentration of particles derived from Lorenz-Mie calculation of OPC scattering (μg/m³)
DateTimeUTC,F1_M11,P_M11,Q1_M11,Q2_M11,T1_M11,T2_M11,T3_M11,T4_M11,T5_M11,U1_M11,ZSPAN_M11,X2_M11,X0_M11,X1_M11
2023-11-04 18:00:00,SystemResetWarning,0835.0,5.01,000.00,028.6,027.9,000.0,036.8,030.1,14.2,0000.0,0003.51,0008.11,0002.77
2023-11-04 18:01:00,SystemResetWarning,0835.0,4.99,000.00,028.6,027.9,000.0,036.9,030.1,14.2,0000.0,0003.48,0008.26,0002.79
2023-11-04 18:02:00,SystemResetWarning,0834.8,4.99,000.00,028.7,027.9,000.0,036.9,030.1,14.3,0000.0,0003.52,0008.34,0002.84
2023-11-04 18:03:00,SystemResetWarning,0834.7,5.00,000.00,028.7,027.9,000.0,036.9,030.1,14.1,0000.0,0003.52,0008.72,0002.85
2023-11-04 18:04:00,SystemResetWarning,0834.7,5.00,000.00,028.7,028.0,000.0,036.9,030.1,14.0,0000.0,0003.54,0009.00,0002.84
2023-11-04 18:05:00,SystemResetWarning,0834.7,5.00,000.00,028.7,028.0,000.0,036.9,030.2,14.0,0000.0,0003.55,0008.66,0002.81
2023-11-04 18:06:00,SystemResetWarning,0834.8,5.01,000.00,028.7,028.0,000.0,036.9,030.2,13.9,0000.0,0003.53,0008.34,0002.78
2023-11-04 18:07:00,SystemResetWarning,0834.9,5.00,000.00,028.8,027.6,000.0,036.9,030.3,13.6,0000.0,0003.51,0008.23,0002.76
2023-11-04 18:08:00,SystemResetWarning,0834.9,4.98,000.00,028.7,025.7,000.0,036.9,030.1,14.2,0000.0,0003.46,0008.06,0002.74
2023-11-04 18:09:00,SystemResetWarning,0835.1,5.03,000.00,028.6,024.0,000.0,036.8,029.7,14.4,0000.0,0003.44,0008.01,0002.72
2023-11-04 18:10:00,SystemResetWarning,0835.2,5.00,000.00,028.5,023.9,000.0,036.7,029.4,14.3,0000.0,0003.42,0007.97,0002.73
2023-11-04 18:11:00,SystemResetWarning,0834.6,5.01,000.00,028.3,024.3,000.0,036.7,029.0,14.5,0000.0,0003.43,0007.69,0002.76
2023-11-04 18:12:00,SystemResetWarning,0834.7,4.99,000.00,028.1,024.8,000.0,036.6,029.0,14.5,0000.0,0003.46,0007.65,0002.78
2023-11-04 18:13:00,SystemResetWarning,0834.6,5.01,000.00,028.1,025.3,000.0,036.6,029.1,14.7,0000.0,0003.45,0007.73,0002.78
2023-11-04 18:14:00,SystemResetWarning,0834.6,4.99,000.00,028.0,025.6,000.0,036.6,029.2,14.5,0000.0,0003.44,0007.36,0002.78
2023-11-04 18:15:00,SystemResetWarning,0834.6,5.01,000.00,028.0,026.0,000.0,036.5,029.3,14.6,0000.0,0003.43,0007.49,0002.80
2023-11-04 18:16:00,SystemResetWarning,0834.6,4.99,000.00,028.0,026.2,000.0,036.5,029.3,14.7,0000.0,0003.49,0007.81,0002.86
2023-11-04 18:17:00,SystemResetWarning,0834.6,5.00,000.00,028.0,026.4,000.0,036.5,029.4,14.8,0000.0,0003.56,0008.19,0002.99
2023-11-04 18:18:00,SystemResetWarning,0834.6,5.00,000.00,028.0,026.6,000.0,036.4,029.4,14.5,0000.0,0003.61,0008.47,0003.10
2023-11-04 18:19:00,SystemResetWarning,0834.8,4.99,000.00,028.0,026.8,000.0,036.4,029.4,14.5,0000.0,0003.70,0008.78,0003.18
2023-11-04 18:20:00,SystemResetWarning,0835.0,5.00,000.00,028.1,026.9,000.0,036.4,029.5,14.6,0000.0,0003.78,0008.94,0003.22
2023-11-04 18:21:00,SystemResetWarning,0834.7,5.00,000.00,028.1,027.0,000.0,036.4,029.6,14.7,0000.0,0003.82,0008.99,0003.25
2023-11-04 18:22:00,SystemResetWarning,0834.8,5.01,000.00,028.1,027.1,000.0,036.4,029.6,14.7,0000.0,0003.84,0009.00,0003.27
2023-11-04 18:23:00,SystemResetWarning,0835.0,5.01,000.00,028.1,027.2,000.0,036.4,029.6,14.6,0000.0,0003.84,0008.72,0003.28
2023-11-04 18:24:00,SystemResetWarning,0834.7,5.00,000.00,028.2,027.3,000.0,036.4,029.7,14.5,0000.0,0003.85,0008.63,0003.29
2023-11-04 18:25:00,SystemResetWarning,0834.9,5.00,000.00,028.2,027.3,000.0,036.5,029.7,14.5,0000.0,0003.90,0008.65,0003.32
2023-11-04 18:26:00,SystemResetWarning,0834.9,4.99,000.00,028.2,027.4,000.0,036.5,029.8,14.6,0000.0,0003.95,0008.31,0003.37
2023-11-04 18:27:00,SystemResetWarning,0834.7,5.00,000.00,028.3,027.4,000.0,036.5,029.8,14.3,0000.0,0003.94,0008.09,0003.39
2023-11-04 18:28:00,SystemResetWarning,0834.5,5.00,000.00,028.3,027.5,000.0,036.5,029.8,14.4,0000.0,0003.92,0007.78,0003.39
2023-11-04 18:29:00,SystemResetWarning,0834.6,5.00,000.00,028.3,027.5,000.0,036.5,029.9,14.3,0000.0,0003.93,0007.59,0003.38
2023-11-04 18:30:00,SystemResetWarning,0834.5,5.00,000.00,028.3,027.6,000.0,036.5,029.9,14.3,0000.0,0003.91,0007.50,0003.35
2023-11-04 18:31:00,SystemResetWarning,0834.5,5.00,000.00,028.4,027.6,000.0,036.6,029.9,13.9,0000.0,0003.88,0007.68,0003.31
2023-11-04 18:32:00,SystemResetWarning,0834.5,5.00,000.00,028.4,027.7,000.0,036.6,029.9,13.7,0000.0,0003.80,0008.23,0003.26
2023-11-04 18:33:00,SystemResetWarning,0834.5,5.00,000.00,028.4,027.7,000.0,036.6,029.9,13.9,0000.0,0003.72,0008.41,0003.21
2023-11-04 18:34:00,SystemResetWarning,0834.5,5.00,000.00,028.5,027.7,000.0,036.6,030.0,14.0,0000.0,0003.69,0008.35,0003.18
2023-11-04 18:35:00,SystemResetWarning,0834.5,5.00,000.00,028.5,027.8,000.0,036.6,030.0,14.0,0000.0,0003.70,0008.35,0003.18
2023-11-04 18:36:00,SystemResetWarning,0834.4,5.00,000.00,028.5,027.8,000.0,036.7,030.0,13.8,0000.0,0003.66,0008.64,0003.16
2023-11-04 18:37:00,SystemResetWarning,0834.4,4.98,000.00,028.5,026.9,000.0,036.7,030.0,13.8,0000.0,0003.62,0008.62,0003.12
2023-11-04 18:38:00,SystemResetWarning,0834.4,5.01,000.00,028.5,024.8,000.0,036.6,029.7,13.7,0000.0,0003.60,0008.78,0003.10
2023-11-04 18:39:00,SystemResetWarning,0834.4,5.01,000.00,028.3,024.1,000.0,036.5,029.5,13.8,0000.0,0003.59,0009.01,0003.08
2023-11-04 18:40:00,SystemResetWarning,0834.3,5.01,000.00,028.2,024.4,000.0,036.5,029.1,13.9,0000.0,0003.55,0009.54,0003.05
2023-11-04 18:41:00,SystemResetWarning,0834.3,5.00,000.00,028.0,024.8,000.0,036.5,029.0,14.2,0000.0,0003.54,0009.67,0003.02
2023-11-04 18:42:00,SystemResetWarning,0834.4,4.99,000.00,028.0,025.2,000.0,036.4,029.0,14.2,0000.0,0003.52,0009.43,0003.03
2023-11-04 18:43:00,SystemResetWarning,0834.5,5.00,000.00,027.9,025.6,000.0,036.4,029.1,13.9,0000.0,0003.54,0008.71,0003.08
2023-11-04 18:44:00,SystemResetWarning,0834.5,5.00,000.00,027.9,025.9,000.0,036.4,029.2,13.9,0000.0,0003.55,0008.34,0003.11
2023-11-04 18:45:00,SystemResetWarning,0834.5,5.01,000.00,027.9,026.2,000.0,036.3,029.3,14.0,0000.0,0003.59,0008.49,0003.15
2023-11-04 18:46:00,SystemResetWarning,0834.6,5.01,000.00,027.9,026.4,000.0,036.3,029.4,14.2,0000.0,0003.58,0008.80,0003.15
2023-11-04 18:47:00,SystemResetWarning,0834.5,4.98,000.00,028.0,026.6,000.0,036.3,029.4,14.2,0000.0,0003.59,0008.70,0003.14
2023-11-04 18:48:00,SystemResetWarning,0834.3,5.00,000.00,028.0,026.8,000.0,036.3,029.5,14.1,0000.0,0003.62,0008.89,0003.17
2023-11-04 18:49:00,SystemResetWarning,0834.3,5.01,000.00,028.0,026.9,000.0,036.3,029.5,14.0,0000.0,0003.64,0009.12,0003.19
2023-11-04 18:50:00,SystemResetWarning,0834.3,5.01,000.00,028.0,027.0,000.0,036.3,029.6,14.1,0000.0,0003.65,0009.16,0003.21
2023-11-04 18:51:00,SystemResetWarning,0834.2,5.00,000.00,028.1,027.1,000.0,036.3,029.6,14.1,0000.0,0003.70,0009.23,0003.23
2023-11-04 18:52:00,SystemResetWarning,0834.2,5.00,000.00,028.1,027.2,000.0,036.3,029.6,14.1,0000.0,0003.74,0009.38,0003.25
2023-11-04 18:53:00,SystemResetWarning,0834.2,5.00,000.00,028.1,027.3,000.0,036.4,029.7,14.0,0000.0,0003.81,0010.04,0003.32
2023-11-04 18:54:00,SystemResetWarning,0834.1,5.00,000.00,028.2,027.4,000.0,036.4,029.7,14.0,0000.0,0003.90,0010.16,0003.41
2023-11-04 18:55:00,SystemResetWarning,0834.1,5.00,000.00,028.2,027.4,000.0,036.4,029.8,13.9,0000.0,0004.01,0010.49,0003.52
2023-11-04 18:56:00,SystemResetWarning,0834.1,5.00,000.00,028.2,027.5,000.0,036.4,029.8,13.9,0000.0,0004.12,0010.98,0003.59
2023-11-04 18:57:00,SystemResetWarning,0834.1,5.01,000.00,028.3,027.5,000.0,036.4,029.8,14.1,0000.0,0004.20,0011.29,0003.66
2023-11-04 18:58:00,SystemResetWarning,0834.1,5.00,000.00,028.3,027.6,000.0,036.5,029.9,14.2,0000.0,0004.24,0011.27,0003.73
2023-11-04 18:59:00,SystemResetWarning,0834.0,5.00,000.00,028.3,027.6,000.0,036.5,029.9,14.3,0000.0,0004.28,0011.84,0003.78
